Loading…
Loading…
Loading…
Loading…
Loading parcel record…
Hamilton, NJ·Mercer County
Owner email, phone, and authorized agent are available on Pro.
| Date | Price | Book / Page | Verified by |
|---|---|---|---|
| 8/16/1989 | $185,000 | 2498 / 146 | Tax assessor |
Activity captured from the county clerk's daily feed. Includes deeds, mortgages, and other recorded filings.
| Date | Type | Grantor | Grantee | Book / Page | Instrument |
|---|---|---|---|---|---|
| 2025-03-05 | MORTGAGE |
| — |
| — |
| 11939 / 690 |
| 2025008711 |
| 2025-03-05 | MORTGAGE | — | — | 11939 / 671 | 2025008710 |
| 2025-03-05 | MISC DEED | — | — | 6584 / 855 | 2025008709 |
| 2025-03-05 | DEED | — | — | 6584 / 848 | 2025008708 |
| 2023-10-30 | DEED | — | — | 6539 / 395 | 2023036969 |
| 2020-09-09 | DEED | — | — | 6412 / 1977 | 2020037817 |
| 2020-08-27 | NOTICE OF SETTLEMENT | — | — | 1536 / 1486 | 2020036325 |
| 2020-08-18 | MORTGAGE | — | — | 11512 / 415 | 2020034840 |
| 2020-08-18 | DEED | — | — | 6411 / 728 | 2020034839 |
| 2019-03-08 | DEED | — | — | 6360 / 364 | 2019009911 |
| 2017-07-27 | DEED | — | — | 6294 / 149 | 2017034326 |
| 2016-06-16 | NOTICE OF LIS PENDENS | — | — | 416 / 1626 | 2016027670 |
| 2015-08-21 | DEED | — | — | 6226 / 1313 | 2015038179 |
| 2015-04-21 | DISCHARGE OF MORTGAGE | — | — | 1527 / 626 | 2015017600 |
| 2015-02-10 | DEED | — | — | 6212 / 165 | 2015005496 |
| 2014-11-06 | DEED | — | — | 6205 / 1575 | 2014047130 |
| 2014-04-21 | MORTGAGE | — | — | 11062 / 1729 | 2014015497 |
| 2001-12-10 | DD1 | — | — | 4184 / 208 | 2001053065 |
| 2001-06-14 | DD1 | — | — | 4063 / 281 | 2001023809 |
| 1998-05-13 | DD6 | — | — | 3372 / 95 | 1998019230 |
| 1998-05-07 | TSC | — | — | 4273 / 95 | 1998018691 |